Weather History for KLVM - January, 2013

Change the Weather History Date:

Tuesday, January 29, 2013

  Actual Average Record
Temperature  
Mean Temperature 18 °F 27 °F  
Max Temperature 25 °F 37 °F 54 °F (1962)
Min Temperature 10 °F 18 °F -25 °F (1980)
Degree Days  
Heating Degree Days 48 38  
Month to date heating degree days 1106  
Since 1 July heating degree days 4271  
Cooling Degree Days 0 0  
Month to date cooling degree days 0  
Year to date cooling degree days 0  
Moisture  
Dew Point 10 °F    
Average Humidity 66    
Maximum Humidity 86    
Minimum Humidity 52    
Precipitation  
Precipitation 0.00 in 0.02 in 0.12 in (1986)
Month to date precipitation 0.46  
Year to date precipitation 0.46  
Sea Level Pressure  
Sea Level Pressure 29.98 in    
Wind  
Wind Speed 17 mph (WNW)    
Max Wind Speed 26 mph    
Max Gust Speed 36 mph    
Visibility 9 miles    
Events Snow    
T = Trace of Precipitation, MM = Missing Value Source: NWS Daily Summary

Daily Weather History Graph

Daily Weather History Graph

Search for Another Location

Airport or City:

Trip Planner

Search our weather history database for the weather conditions in past years. The results will help you decide how hot, cold, wet, or windy it might be!

Date:

Astronomy

Jan. 29, 2013 Rise Set
Actual Time 7:46 AM MST 5:24 PM MST
Civil Twilight 7:14 AM MST 5:56 PM MST
Nautical Twilight 6:38 AM MST 6:31 PM MST
Astronomical Twilight 6:03 AM MST 7:06 PM MST
Moon 8:36 PM MST (1/29) 8:34 AM MST (1/29)
Length of Visible Light 10h 41m
Length of Day
9h 37m
Waning Gibbous, 93% of the Moon is Illuminated
Jan 29
Waning Gibbous
Feb 3
Last Quarter
Feb 10
New
Feb 17
First Quarter
Feb 25
Full

Hourly Weather History & Observations

Time (MST) Temp. Windchill Dew Point Humidity Pressure Visibility Wind Dir Wind Speed Gust Speed Precip Events Conditions
12:53 AM 25.0 °F 8.9 °F 10.9 °F 55% 29.77 in 10.0 mi SW 26.5 mph 35.7 mph N/A   Overcast
1:53 AM 24.1 °F 9.4 °F 12.0 °F 60% 29.78 in 10.0 mi SW 20.7 mph 35.7 mph N/A   Overcast
2:53 AM 24.1 °F 10.6 °F 12.0 °F 60% 29.77 in 10.0 mi SW 17.3 mph 29.9 mph N/A   Overcast
3:53 AM 23.0 °F 8.7 °F 12.9 °F 65% 29.77 in 10.0 mi SW 18.4 mph 26.5 mph N/A   Overcast
4:53 AM 23.0 °F 8.7 °F 15.1 °F 72% 29.80 in 10.0 mi SW 18.4 mph - N/A   Overcast
5:53 AM 24.1 °F 11.0 °F 15.1 °F 69% 29.83 in 10.0 mi WSW 16.1 mph - N/A   Overcast
6:53 AM 24.1 °F 13.1 °F 16.0 °F 71% 29.85 in 4.0 mi WSW 11.5 mph - 0.00 in Snow Light Snow
7:26 AM 23.0 °F 10.6 °F 17.6 °F 80% 29.76 in 3.0 mi NW 13.8 mph 21.9 mph 0.00 in Snow Light Snow
7:46 AM 21.2 °F 10.1 °F 15.8 °F 80% 29.76 in 9.0 mi WNW 10.4 mph - 0.00 in   Overcast
7:53 AM 21.0 °F 11.4 °F 15.1 °F 78% 29.91 in 10.0 mi WNW 8.1 mph - 0.00 in   Overcast
8:53 AM 23.0 °F 13.1 °F 15.1 °F 72% 29.94 in 10.0 mi WNW 9.2 mph - N/A   Overcast
9:13 AM 21.2 °F 9.5 °F 17.6 °F 86% 29.81 in 1.8 mi WNW 11.5 mph - 0.00 in Snow Light Snow
9:22 AM 21.2 °F 10.1 °F 15.8 °F 80% 29.82 in 3.0 mi West 10.4 mph - 0.00 in Snow Light Snow
9:53 AM 21.9 °F 11.0 °F 12.9 °F 68% 29.97 in 10.0 mi WNW 10.4 mph 24.2 mph 0.00 in   Scattered Clouds
10:53 AM 21.9 °F 8.7 °F 10.0 °F 60% 30.02 in 10.0 mi NW 15.0 mph 21.9 mph N/A   Clear
11:53 AM 19.0 °F 4.0 °F 7.0 °F 59% 30.07 in 10.0 mi NNW 17.3 mph - N/A   Clear
12:53 PM 19.9 °F 5.7 °F 6.1 °F 55% 30.08 in 10.0 mi NW 16.1 mph 23.0 mph N/A   Mostly Cloudy
1:53 PM 21.9 °F 8.2 °F 7.0 °F 53% 30.09 in 10.0 mi NNW 16.1 mph - N/A   Overcast
2:53 PM 19.9 °F 4.3 °F 5.0 °F 52% 30.13 in 10.0 mi NW 19.6 mph - N/A   Mostly Cloudy
3:53 PM 17.1 °F 2.5 °F 3.0 °F 54% 30.17 in 10.0 mi NW 15.0 mph 19.6 mph N/A   Partly Cloudy
4:53 PM 15.1 °F 1.8 °F 1.9 °F 56% 30.19 in 10.0 mi NW 11.5 mph - N/A   Partly Cloudy
5:53 PM 10.9 °F 0.2 °F 1.0 °F 64% 30.21 in 10.0 mi WNW 6.9 mph - N/A   Scattered Clouds
6:53 PM 12.9 °F 0.7 °F 1.9 °F 62% 30.20 in 10.0 mi NW 9.2 mph - N/A   Overcast
7:53 PM 12.0 °F -1.3 °F 1.9 °F 64% 30.20 in 10.0 mi NW 10.4 mph - N/A   Overcast
8:53 PM 12.0 °F -2.0 °F 3.0 °F 67% 30.17 in 10.0 mi NW 11.5 mph - N/A   Overcast
9:53 PM 12.9 °F -0.9 °F 3.9 °F 67% 30.15 in 10.0 mi NNW 11.5 mph - N/A   Overcast
10:53 PM 12.9 °F -0.2 °F 3.9 °F 67% 30.11 in 10.0 mi NNW 10.4 mph - N/A   Overcast
11:53 PM 21.0 °F 4.3 °F 10.9 °F 65% 30.06 in 10.0 mi WSW 24.2 mph - N/A   Overcast